MSAT M1

Last updated on Wed Dec 02 2020 06:18:34 GMT+0000 (Coordinated Universal Time)

1 23846U 96022A 20336.55210939 -.00000239 00000-0 00000-0 0 9995 2 23846 9.5073 40.6500 0017648 167.3481 209.5207 0.98647972 90129
UTC large
Height (km)
Speed (km/s)
/
Latitude / Longitude
Inclination (degrees)
Orbital Period (minutes)
Azimuth
Elevation
Range (km)
Doppler Factor

Next 0 passes for location: London (51.5072 / 0.1276)

Sorry there are no passes over London.
MSAT M1